Regional Weather Roundup
Issued by NWS Grand Forks, ND

Home | Current Version | Previous Version | Graphics & Text | Print | Product List | Glossary On
Versions: 1 2 3 4 5 6 7 8 9 10 11 12 13 14 15 16 17 18 19 20 21 22 23 24 25 26 27 28 29 30 31 32 33 34 35 36 37 38 39 40 41 42 43 44 45 46 47 48 49 50
000
ASUS43 KFGF 020631
RWRFGF
PRAIRIE TO PINES  WEATHER ROUNDUP
NATIONAL WEATHER SERVICE EASTERN NORTH DAKOTA/GRAND FORKS ND
1200 AM CST MON MAR 02 2015

 **SATELLITE DATA USED TO AUGMENT SKY COVER AT AUTOMATED STATIONS**
 *****  WEATHER ACROSS EASTERN NORTH DAKOTA  *****

CITY           SKY/WX    TMP DP  RH WIND       PRES   REMARKS
GRAND FORKS    CLEAR      4   0  83 W8        30.37R WCI  -9
6HR MIN TEMP:   4; 6HR MAX TEMP:  18;

GRAND FRKS AFB CLEAR      8   2  74 W8        30.38R WCI  -4
GRAND FRKS NWS   N/A      5 N/A N/A W3          N/A
DEVILS LAKE    PTCLDY     5   0  78 W7        30.32S WCI  -7
6HR MIN TEMP:   5; 6HR MAX TEMP:  16;

FARGO          CLEAR      8   2  76 W9        30.40S WCI  -5
WAHPETON ARPT  CLEAR      9   3  78 W7        30.43R WCI  -3
$$

 ***** WEATHER ACROSS CENTRAL AND WESTERN NORTH DAKOTA  *****

CITY           SKY/WX    TMP DP  RH WIND       PRES   REMARKS
BISMARCK       PTCLDY     4  -1  80 CALM      30.36F
6HR MIN TEMP:   2; 6HR MAX TEMP:  23;

MINOT          PTCLDY     7   1  76 SW12      30.29S WCI  -8
6HR MIN TEMP:   7; 6HR MAX TEMP:  20;

JAMESTOWN      PTCLDY     8   2  76 W6        30.36R WCI  -2
6HR MIN TEMP:   7; 6HR MAX TEMP:  17;

MINOT AFB      PTCLDY     2  -1  87 W9        30.28F WCI -13
GARRISON         N/A      4   0  83 CALM      30.30F
WILLISTON      PTCLDY    13   9  84 SE6       30.24F WCI   4
6HR MIN TEMP:   2; 6HR MAX TEMP:  24;

DICKINSON      PTCLDY     5   1  83 S8        30.23F WCI  -8
6HR MIN TEMP:   5; 6HR MAX TEMP:  22; 6HR PCP: TRACE;

HETTINGER      PTCLDY     9   4  80 SE7       30.27F WCI  -2
6HR MIN TEMP:   0; 6HR MAX TEMP:  23; 6HR PCP: TRACE;

$$

 *****  OTHER AIRPORT OBSERVATIONS IN OUR AREA  *****

CITY           SKY/WX    TMP DP  RH WIND       PRES   REMARKS
WALHALLA         N/A      9   7  92 W8        30.34R WCI  -4
GRAFTON AIRPOR NOT AVBL
VALLEY CITY AR FAIR       7   3  85 W14       30.36F WCI -10
CANDO          FAIR       0  -4  85 W8        30.31S WCI -15
CAVALIER APRT  FAIR       9   5  85 W7        30.35R WCI  -3
GWINNER        CLEAR      9   3  78 W10       30.41S WCI  -6
SHEYENNE NWR     N/A      4  -1  79 NW5       29.95  WCI  -5
ROLLA          FAIR       7   5  92 W9        30.27S WCI  -7
 ***** THE ABOVE OBSERVATIONS ARE NON NWS ARE NOT QUALITY
       CONTROLLED AND MAY MIS-REPORT RAIN FOR SNOW...
$$

  *****  WEATHER ACROSS NORTHERN MINNESOTA  *****

CITY           SKY/WX    TMP DP  RH WIND       PRES   REMARKS
FLAG ISLAND    CLEAR      9   3  78 W7        30.26R WCI  -3
WARROAD        CLEAR      5   1  85 W7        30.29R WCI  -7
ROSEAU         CLEAR     10   3  72 W7        30.30R WCI   0
HALLOCK        CLEAR      3  -2  78 W8        30.33R WCI -10
THF RVR FALLS  CLEAR      7   3  85 W9        30.33S WCI  -7
6HR MIN TEMP:   7; 6HR MAX TEMP:  12;

BAUDETTE       CLEAR      7   1  76 W7        30.26R WCI  -5
6HR MIN TEMP:   7; 6HR MAX TEMP:  16;

WASKISH        CLEAR      3   1  92 SW8       30.29F WCI -10
CROOKSTON      CLEAR      7   1  78 W8        30.38S WCI  -6
STEPHEN NDAWN    N/A      7   0  72 SW8         N/A  WCI  -6
GREENBUSH NDAW   N/A      3   1  92 MISG        N/A
$$
  *****  WEATHER ACROSS CENTRAL AND WEST MINNESOTA  *****

CITY           SKY/WX    TMP DP  RH WIND       PRES   REMARKS
FOSSTON        CLOUDY     3   1  92 SW5       30.35R WCI  -6
BEMIDJI        CLEAR      5   2  88 SW6       30.31S WCI  -5
PARK RAPIDS    CLEAR      4   1  88 NW6       30.33R WCI  -7
6HR MIN TEMP:  -1; 6HR MAX TEMP:  17;

ELBOW LAKE     FAIR       8   4  86 W6        30.41R WCI  -3
6HR MIN TEMP:   7; 6HR MAX TEMP:  20;

WADENA         CLEAR      5   1  85 W7        30.37R WCI  -7
DETROIT LAKES  PTCLDY     9   5  85 W3        30.36F
MOORHEAD       CLEAR      9   5  85 SW8       30.41S WCI  -4
FERGUS FALLS   CLEAR      7   1  78 NW5       30.44S WCI  -2
MORRIS MN      CLEAR      9   3  78 NW8       30.41S WCI  -4
STAPLES        CLEAR      3   1  92 W6        30.37R WCI  -8
$$
  *****  WEATHER ELSEWHERE ACROSS MINNESOTA  *****

CITY           SKY/WX    TMP DP  RH WIND       PRES   REMARKS
DULUTH         CLEAR     12   4  70 W9        30.27R WCI   0
6HR MIN TEMP:  12; 6HR MAX TEMP:  22;

INTRNTL FALLS  CLOUDY    10   3  73 W9        30.25R WCI  -3
6HR MIN TEMP:   9; 6HR MAX TEMP:  16; 6HR PCP: TRACE;

ELY            PTCLDY     9   7  92 W9        30.23R WCI  -5
CLOQUET        CLEAR     10   3  72 W8        30.30R WCI  -1
WHEATON        NOT AVBL
BRAINERD       CLEAR      9   5  84 W6        30.36R WCI  -1
6HR MIN TEMP:   8; 6HR MAX TEMP:  20;

HIBBING        CLEAR     10   3  73 NW12      30.27R WCI  -5
6HR MIN TEMP:  10; 6HR MAX TEMP:  19;

ALEXANDRIA     CLEAR      8   5  87 W7        30.39R WCI  -3
6HR MIN TEMP:   7; 6HR MAX TEMP:  19; 6HR PCP: TRACE;

SAINT CLOUD    CLEAR     14   8  77 W10       30.39R WCI   1
6HR MIN TEMP:  13; 6HR MAX TEMP:  24; 6HR PCP: TRACE;

MINNEAPOLIS    PTCLDY    19   9  65 NW13      30.40R WCI   6
6HR MIN TEMP:  19; 6HR MAX TEMP:  27; 6HR PCP: TRACE;

$$

  *****  WEATHER ACROSS SOUTH DAKOTA  *****

CITY           SKY/WX    TMP DP  RH WIND       PRES   REMARKS
SIOUX FALLS    CLEAR     12   8  84 N5        30.44R WCI   4
6HR MIN TEMP:  12; 6HR MAX TEMP:  27;

BROOKINGS      NOT AVBL
WATERTOWN      PTCLDY     5   2  87 W7        30.40R WCI  -7
6HR MIN TEMP:   5; 6HR MAX TEMP:  21; 6HR PCP: TRACE;

HURON          MOCLDY     7   3  84 CALM      30.45S
6HR MIN TEMP:   7; 6HR MAX TEMP:  26;

SISSETON         N/A     11   5  77 W9        30.42R WCI  -2
ABERDEEN       PTCLDY     1  -3  83 SW6       30.44R WCI -10
6HR MIN TEMP:   1; 6HR MAX TEMP:  24;

MITCHELL       PTCLDY    11   8  88 N5        30.46S WCI   3
PIERRE         PTCLDY    10   9  95 CALM      30.39F
6HR MIN TEMP:   9; 6HR MAX TEMP:  31;

MOBRIDGE       PTCLDY     9   6  88 SE5       30.35S WCI   1
RAPID CITY     PTCLDY    12   6  77 S5        30.26F WCI   4
6HR MIN TEMP:   6; 6HR MAX TEMP:  24;

$$

  *****  SOME WEATHER IN NEARBY STATES *****

CITY           SKY/WX    TMP DP  RH WIND       PRES   REMARKS
GLASGOW MT     CLEAR     16   8  71 SE14      30.11F WCI   2
6HR MIN TEMP:  16; 6HR MAX TEMP:  28;

GREAT FALLS MT MOCLDY    30  10  43 S14       29.87F WCI  19
6HR MIN TEMP:  28; 6HR MAX TEMP:  33;

CHEYENNE WY    MOCLDY    19  14  81 S14       30.12F WCI   6
6HR MIN TEMP:  19; 6HR MAX TEMP:  23;

SCOTTSBLUFF NE CLOUDY    25  14  63 E8        30.23F WCI  16
6HR MIN TEMP:  22; 6HR MAX TEMP:  34;

OMAHA NE       PTCLDY    23  17  78 NW3       30.48S
6HR MIN TEMP:  20; 6HR MAX TEMP:  35;

DES MOINES IA  PTCLDY    21  13  71 NW6       30.47R WCI  13
6HR MIN TEMP:  21; 6HR MAX TEMP:  30;

DAVENPORT IA   PTCLDY     7   2  80 W8        30.43R WCI  -6
6HR MIN TEMP:   7; 6HR MAX TEMP:  21;

CHICAGO IL     PTCLDY    19   8  62 W13       30.36R WCI   6
6HR MIN TEMP:  18; 6HR MAX TEMP:  21;

EAU CLAIRE WI  CLEAR     17   8  67 NW7       30.33R WCI   8
6HR MIN TEMP:  13; 6HR MAX TEMP:  22;

LA CROSSE WI   CLEAR     10   4  76 CALM      30.37R
6HR MIN TEMP:  10; 6HR MAX TEMP:  23;

$$

  *****  SOME NATIONAL WEATHER *****

CITY           SKY/WX    TMP DP  RH WIND       PRES   REMARKS
LA GUARDIA NY  CLOUDY    29  24  82 NW3       30.12F
6HR MIN TEMP:  27; 6HR MAX TEMP:  29; 6HR PCP:  0.08;

RALEIGH NC     FOG       35  33  92 SW7       30.27F VSB 1/4
6HR MIN TEMP:  33; 6HR MAX TEMP:  36; 6HR PCP:  0.02;

ATLANTA GA     CLOUDY    46  43  89 CALM      30.33F FOG
6HR MIN TEMP:  45; 6HR MAX TEMP:  46;

NEW ORLEANS LA LGT RAIN  60  57  89 E13       30.29S FOG
6HR MIN TEMP:  58; 6HR MAX TEMP:  60; 6HR PCP:  0.12;

OKLAHOMA CITY  CLOUDY    31  22  69 N7        30.45F WCI  24
6HR MIN TEMP:  29; 6HR MAX TEMP:  34;

ALBUQUERQUE NM MOCLDY    51  27  39 S12       30.10S
6HR MIN TEMP:  47; 6HR MAX TEMP:  63;

SALT LAKE CITY CLOUDY    40  30  67 CALM      29.98F
6HR MIN TEMP:  38; 6HR MAX TEMP:  46;



USA.gov is the U.S. government's official web portal to all federal, state and local government web resources and services.